Time,TemperatureF,DewpointF,PressureIn,WindDirection,WindDirectionDegrees,WindSpeedMPH,WindSpeedGustMPH,Humidity,HourlyPrecipIn,Conditions,Clouds,dailyrainin,SoftwareType,DateUTC
2013-03-28 00:00:00,24.1,15.1,30.21,NNW,344,0.0,0.0,68,0.00,CLR,,0.00,WeatherDisplay:10.37,2013-03-28 08:00:00,
2013-03-28 00:05:00,24.0,15.0,30.21,NNW,344,0.0,0.0,68,0.00,CLR,,0.00,WeatherDisplay:10.37,2013-03-28 08:05:00,
2013-03-28 00:10:00,24.0,15.3,30.21,NNW,344,0.0,0.0,69,0.00,CLR,,0.00,WeatherDisplay:10.37,2013-03-28 08:10:00,
2013-03-28 00:15:00,24.0,15.3,30.21,NNW,344,0.0,0.0,69,0.00,CLR,,0.00,WeatherDisplay:10.37,2013-03-28 08:15:00,
2013-03-28 00:20:00,24.0,15.3,30.21,NNW,344,0.0,0.0,69,0.00,CLR,,0.00,WeatherDisplay:10.37,2013-03-28 08:20:00,
2013-03-28 00:25:00,23.9,15.2,30.21,NNW,344,0.0,0.0,69,0.00,CLR,,0.00,WeatherDisplay:10.37,2013-03-28 08:25:00,
2013-03-28 00:30:00,23.8,15.4,30.20,NNW,344,0.0,0.0,70,0.00,CLR,,0.00,WeatherDisplay:10.37,2013-03-28 08:30:00,
2013-03-28 00:35:00,23.8,15.4,30.20,NNW,344,0.0,0.0,70,0.00,CLR,,0.00,WeatherDisplay:10.37,2013-03-28 08:35:00,
2013-03-28 00:40:00,23.7,15.3,30.20,NNW,344,0.0,0.0,70,0.00,CLR,,0.00,WeatherDisplay:10.37,2013-03-28 08:40:00,
2013-03-28 00:45:00,23.7,15.3,30.20,NNW,344,0.0,0.0,70,0.00,CLR,,0.00,WeatherDisplay:10.37,2013-03-28 08:45:00,
2013-03-28 00:50:00,23.8,15.4,30.20,NNW,344,0.0,0.0,70,0.00,CLR,,0.00,WeatherDisplay:10.37,2013-03-28 08:50:00,
2013-03-28 00:55:00,23.8,15.4,30.20,NNW,344,0.0,0.0,70,0.00,CLR,,0.00,WeatherDisplay:10.37,2013-03-28 08:55:00,
2013-03-28 01:00:00,23.8,15.4,30.20,NNW,344,0.0,0.0,70,0.00,CLR,,0.00,WeatherDisplay:10.37,2013-03-28 09:00:00,
2013-03-28 01:05:00,23.7,15.7,30.20,NNW,344,0.0,0.0,71,0.00,CLR,,0.00,WeatherDisplay:10.37,2013-03-28 09:05:00,
2013-03-28 01:10:00,23.6,15.2,30.20,NNW,344,0.0,0.0,70,0.00,CLR,,0.00,WeatherDisplay:10.37,2013-03-28 09:10:00,
2013-03-28 01:15:00,23.7,15.7,30.19,NNW,344,0.0,0.0,71,0.00,CLR,,0.00,WeatherDisplay:10.37,2013-03-28 09:15:00,
2013-03-28 01:20:00,23.6,15.6,30.19,NNW,344,0.0,0.0,71,0.00,CLR,,0.00,WeatherDisplay:10.37,2013-03-28 09:20:00,
2013-03-28 01:25:00,23.6,15.6,30.19,NNW,344,0.0,0.0,71,0.00,CLR,,0.00,WeatherDisplay:10.37,2013-03-28 09:25:00,
2013-03-28 01:30:00,23.6,15.6,30.19,NNW,344,0.0,0.0,71,0.00,CLR,,0.00,WeatherDisplay:10.37,2013-03-28 09:30:00,
2013-03-28 01:35:00,23.6,15.6,30.19,NNW,344,0.0,0.0,71,0.00,CLR,,0.00,WeatherDisplay:10.37,2013-03-28 09:35:00,
2013-03-28 01:40:00,23.6,15.6,30.19,NNW,344,0.0,0.0,71,0.00,CLR,,0.00,WeatherDisplay:10.37,2013-03-28 09:40:00,
2013-03-28 01:45:00,23.6,15.6,30.19,NNW,344,0.0,0.0,71,0.00,CLR,,0.00,WeatherDisplay:10.37,2013-03-28 09:45:00,
2013-03-28 01:50:00,23.6,15.6,30.19,NNW,344,0.0,0.0,71,0.00,CLR,,0.00,WeatherDisplay:10.37,2013-03-28 09:50:00,
2013-03-28 01:55:00,23.6,15.6,30.19,NNW,344,0.0,0.0,71,0.00,CLR,,0.00,WeatherDisplay:10.37,2013-03-28 09:55:00,
2013-03-28 02:00:00,23.7,15.7,30.19,NNW,344,0.0,0.0,71,0.00,CLR,,0.00,WeatherDisplay:10.37,2013-03-28 10:00:00,
2013-03-28 02:05:00,23.8,15.8,30.19,NNW,344,0.0,0.0,71,0.00,CLR,,0.00,WeatherDisplay:10.37,2013-03-28 10:05:00,
2013-03-28 02:10:00,23.8,15.8,30.19,NNW,344,0.0,0.0,71,0.00,CLR,,0.00,WeatherDisplay:10.37,2013-03-28 10:10:00,
2013-03-28 02:15:00,23.7,15.7,30.19,NNW,344,0.0,0.0,71,0.00,CLR,,0.00,WeatherDisplay:10.37,2013-03-28 10:15:00,
2013-03-28 02:20:00,23.6,15.9,30.19,NNW,344,0.0,0.0,72,0.00,CLR,,0.00,WeatherDisplay:10.37,2013-03-28 10:20:00,
2013-03-28 02:25:00,23.5,15.8,30.19,NNW,344,0.0,0.0,72,0.00,CLR,,0.00,WeatherDisplay:10.37,2013-03-28 10:25:00,
2013-03-28 02:30:00,23.5,15.8,30.19,NNW,344,0.0,0.0,72,0.00,CLR,,0.00,WeatherDisplay:10.37,2013-03-28 10:30:00,
2013-03-28 02:35:00,23.5,15.8,30.19,NNW,344,0.0,0.0,72,0.00,CLR,,0.00,WeatherDisplay:10.37,2013-03-28 10:35:00,
2013-03-28 02:40:00,23.4,16.0,30.19,NNW,344,0.0,0.0,73,0.00,CLR,,0.00,WeatherDisplay:10.37,2013-03-28 10:40:00,
2013-03-28 02:45:00,23.3,15.9,30.18,NNW,344,0.0,0.0,73,0.00,CLR,,0.00,WeatherDisplay:10.37,2013-03-28 10:45:00,
2013-03-28 02:50:00,23.3,15.9,30.18,NNW,344,0.0,0.0,73,0.00,CLR,,0.00,WeatherDisplay:10.37,2013-03-28 10:50:00,
2013-03-28 02:55:00,23.2,15.8,30.18,NNW,344,0.0,0.0,73,0.00,CLR,,0.00,WeatherDisplay:10.37,2013-03-28 10:55:00,
2013-03-28 03:00:00,23.2,15.8,30.18,NNW,344,0.0,0.0,73,0.00,CLR,,0.00,WeatherDisplay:10.37,2013-03-28 11:00:00,
2013-03-28 03:05:00,23.2,15.8,30.18,NNW,344,0.0,0.0,73,0.00,CLR,,0.00,WeatherDisplay:10.37,2013-03-28 11:05:00,
2013-03-28 03:10:00,23.1,15.7,30.18,NNW,344,0.0,0.0,73,0.00,CLR,,0.00,WeatherDisplay:10.37,2013-03-28 11:10:00,
2013-03-28 03:15:00,23.1,16.0,30.18,NNW,344,0.0,0.0,74,0.00,CLR,,0.00,WeatherDisplay:10.37,2013-03-28 11:15:00,
2013-03-28 03:20:00,23.0,15.9,30.18,NNW,344,0.0,0.0,74,0.00,CLR,,0.00,WeatherDisplay:10.37,2013-03-28 11:20:00,
2013-03-28 03:25:00,23.0,15.9,30.18,NNW,344,0.0,0.0,74,0.00,CLR,,0.00,WeatherDisplay:10.37,2013-03-28 11:25:00,
2013-03-28 03:30:00,23.0,15.9,30.18,NNW,344,0.0,0.0,74,0.00,CLR,,0.00,WeatherDisplay:10.37,2013-03-28 11:30:00,
2013-03-28 03:35:00,23.1,16.4,30.18,NNW,344,0.0,0.0,75,0.00,CLR,,0.00,WeatherDisplay:10.37,2013-03-28 11:35:00,
2013-03-28 03:40:00,23.0,16.3,30.18,NNW,344,0.0,0.0,75,0.00,CLR,,0.00,WeatherDisplay:10.37,2013-03-28 11:40:00,
2013-03-28 03:45:00,23.0,16.3,30.18,NNW,344,0.0,0.0,75,0.00,CLR,,0.00,WeatherDisplay:10.37,2013-03-28 11:45:00,
2013-03-28 03:50:00,23.0,16.3,30.18,NNW,344,0.0,0.0,75,0.00,CLR,,0.00,WeatherDisplay:10.37,2013-03-28 11:50:00,
2013-03-28 03:55:00,23.0,16.6,30.18,NNW,344,0.0,0.0,76,0.00,CLR,,0.00,WeatherDisplay:10.37,2013-03-28 11:55:00,
2013-03-28 04:00:00,23.0,16.6,30.17,NNW,344,0.0,0.0,76,0.00,CLR,,0.00,WeatherDisplay:10.37,2013-03-28 12:00:00,
2013-03-28 04:05:00,23.1,17.0,30.17,NNW,344,0.0,0.0,77,0.00,CLR,,0.00,WeatherDisplay:10.37,2013-03-28 12:05:00,
2013-03-28 04:10:00,23.2,16.8,30.17,NNW,344,0.0,0.0,76,0.00,CLR,,0.00,WeatherDisplay:10.37,2013-03-28 12:10:00,
2013-03-28 04:15:00,23.3,17.2,30.17,NNW,344,0.0,0.0,77,0.00,CLR,,0.00,WeatherDisplay:10.37,2013-03-28 12:15:00,
2013-03-28 04:20:00,23.3,17.2,30.17,NNW,344,0.0,0.0,77,0.00,CLR,,0.00,WeatherDisplay:10.37,2013-03-28 12:20:00,
2013-03-28 04:25:00,23.4,17.3,30.17,NNW,344,0.0,0.0,77,0.00,CLR,,0.00,WeatherDisplay:10.37,2013-03-28 12:25:00,
2013-03-28 04:30:00,23.4,17.6,30.17,NNW,344,0.0,0.0,78,0.00,CLR,,0.00,WeatherDisplay:10.37,2013-03-28 12:30:00,
2013-03-28 04:35:00,23.4,17.8,30.17,NNW,344,0.0,0.0,79,0.00,CLR,,0.00,WeatherDisplay:10.37,2013-03-28 12:35:00,
2013-03-28 04:40:00,23.4,17.8,30.17,NNW,344,0.0,0.0,79,0.00,CLR,,0.00,WeatherDisplay:10.37,2013-03-28 12:40:00,
2013-03-28 04:45:00,23.4,17.8,30.17,NNW,344,0.0,0.0,79,0.00,CLR,,0.00,WeatherDisplay:10.37,2013-03-28 12:45:00,
2013-03-28 04:50:00,23.6,18.0,30.17,NNW,344,0.0,0.0,79,0.00,CLR,,0.00,WeatherDisplay:10.37,2013-03-28 12:50:00,
2013-03-28 04:55:00,23.6,18.0,30.17,NNW,344,0.0,0.0,79,0.00,CLR,,0.00,WeatherDisplay:10.37,2013-03-28 12:55:00,
2013-03-28 05:00:00,23.5,18.2,30.17,NNW,344,0.0,0.0,80,0.00,CLR,,0.00,WeatherDisplay:10.37,2013-03-28 13:00:00,
2013-03-28 05:05:00,23.4,18.4,30.17,NNW,344,0.0,0.0,81,0.00,CLR,,0.00,WeatherDisplay:10.37,2013-03-28 13:05:00,
2013-03-28 05:10:00,23.4,18.4,30.17,NNW,344,0.0,0.0,81,0.00,CLR,,0.00,WeatherDisplay:10.37,2013-03-28 13:10:00,
2013-03-28 05:15:00,23.4,18.7,30.17,NNW,344,0.0,0.0,82,0.00,CLR,,0.00,WeatherDisplay:10.37,2013-03-28 13:15:00,
2013-03-28 05:20:00,23.4,18.7,30.17,NNW,344,0.0,0.0,82,0.00,CLR,,0.00,WeatherDisplay:10.37,2013-03-28 13:20:00,
2013-03-28 05:25:00,23.3,18.9,30.17,NNW,344,0.0,0.0,83,0.00,CLR,,0.00,WeatherDisplay:10.37,2013-03-28 13:25:00,
2013-03-28 05:30:00,23.3,18.9,30.17,NNW,344,0.0,0.0,83,0.00,CLR,,0.00,WeatherDisplay:10.37,2013-03-28 13:30:00,
2013-03-28 05:35:00,23.3,18.9,30.17,NNW,344,0.0,0.0,83,0.00,CLR,,0.00,WeatherDisplay:10.37,2013-03-28 13:35:00,
2013-03-28 05:40:00,23.3,19.2,30.16,NNW,344,0.0,0.0,84,0.00,CLR,,0.00,WeatherDisplay:10.37,2013-03-28 13:40:00,
2013-03-28 05:45:00,23.2,19.1,30.16,NNW,344,0.0,0.0,84,0.00,CLR,,0.00,WeatherDisplay:10.37,2013-03-28 13:45:00,
2013-03-28 05:50:00,23.1,19.3,30.16,NNW,344,0.0,0.0,85,0.00,CLR,,0.00,WeatherDisplay:10.37,2013-03-28 13:50:00,
2013-03-28 05:55:00,23.1,19.3,30.16,NNW,344,0.0,0.0,85,0.00,CLR,,0.00,WeatherDisplay:10.37,2013-03-28 13:55:00,
2013-03-28 06:00:00,23.1,19.5,30.16,NNW,344,0.0,0.0,86,0.00,CLR,,0.00,WeatherDisplay:10.37,2013-03-28 14:00:00,
2013-03-28 06:05:00,23.1,19.5,30.16,NNW,344,0.0,0.0,86,0.00,CLR,,0.00,WeatherDisplay:10.37,2013-03-28 14:05:00,
2013-03-28 06:10:00,23.0,19.4,30.15,NNW,344,0.0,0.0,86,0.00,CLR,,0.00,WeatherDisplay:10.37,2013-03-28 14:10:00,
2013-03-28 06:15:00,23.0,19.7,30.15,NNW,344,0.0,0.0,87,0.00,CLR,,0.00,WeatherDisplay:10.37,2013-03-28 14:15:00,
2013-03-28 06:20:00,23.0,19.7,30.15,NNW,344,0.0,0.0,87,0.00,CLR,,0.00,WeatherDisplay:10.37,2013-03-28 14:20:00,
2013-03-28 06:25:00,23.0,19.7,30.15,NNW,344,0.0,0.0,87,0.00,CLR,,0.00,WeatherDisplay:10.37,2013-03-28 14:25:00,
2013-03-28 06:30:00,23.0,19.7,30.15,NNW,344,0.0,0.0,87,0.00,CLR,,0.00,WeatherDisplay:10.37,2013-03-28 14:30:00,
2013-03-28 06:35:00,23.0,21.8,30.15,NNW,344,0.0,0.0,95,0.00,CLR,,0.00,WeatherDisplay:10.37,2013-03-28 14:35:00,
2013-03-28 06:40:00,23.0,21.8,30.15,NNW,344,0.0,0.0,95,0.00,CLR,,0.00,WeatherDisplay:10.37,2013-03-28 14:40:00,
2013-03-28 06:45:00,23.0,20.0,30.15,NNW,344,0.0,0.0,88,0.00,CLR,,0.00,WeatherDisplay:10.37,2013-03-28 14:45:00,
2013-03-28 06:50:00,23.1,19.8,30.15,NNW,344,0.0,0.0,87,0.00,CLR,,0.00,WeatherDisplay:10.37,2013-03-28 14:50:00,
2013-03-28 06:55:00,23.2,19.9,30.15,NNW,344,0.0,0.0,87,0.00,CLR,,0.00,WeatherDisplay:10.37,2013-03-28 14:55:00,
2013-03-28 07:00:00,23.2,19.9,30.15,NNW,344,0.0,0.0,87,0.00,CLR,,0.00,WeatherDisplay:10.37,2013-03-28 15:00:00,
2013-03-28 07:05:00,23.2,19.9,30.15,NNW,344,0.0,0.0,87,0.00,CLR,,0.00,WeatherDisplay:10.37,2013-03-28 15:05:00,
2013-03-28 07:10:00,23.3,20.0,30.14,NNW,344,0.0,0.0,87,0.00,CLR,,0.00,WeatherDisplay:10.37,2013-03-28 15:10:00,
2013-03-28 07:15:00,23.3,20.0,30.14,NNW,344,0.0,0.0,87,0.00,CLR,,0.00,WeatherDisplay:10.37,2013-03-28 15:15:00,
2013-03-28 07:20:00,23.3,20.0,30.14,NNW,344,0.0,0.0,87,0.00,CLR,,0.00,WeatherDisplay:10.37,2013-03-28 15:20:00,
2013-03-28 07:25:00,23.3,20.0,30.14,NNW,344,0.0,0.0,87,0.00,CLR,,0.00,WeatherDisplay:10.37,2013-03-28 15:25:00,
2013-03-28 07:30:00,23.3,20.0,30.14,NNW,344,0.0,0.0,87,0.00,CLR,,0.00,WeatherDisplay:10.37,2013-03-28 15:30:00,
2013-03-28 07:35:00,23.3,19.7,30.14,NNW,344,0.0,0.0,86,0.00,CLR,,0.00,WeatherDisplay:10.37,2013-03-28 15:35:00,
2013-03-28 07:40:00,23.4,19.8,30.13,NNW,344,0.0,0.0,86,0.00,CLR,,0.00,WeatherDisplay:10.37,2013-03-28 15:40:00,
2013-03-28 07:45:00,23.4,19.8,30.13,NNW,344,0.0,0.0,86,0.00,CLR,,0.00,WeatherDisplay:10.37,2013-03-28 15:45:00,
2013-03-28 07:50:00,23.5,19.9,30.13,NNW,344,0.0,0.0,86,0.00,CLR,,0.00,WeatherDisplay:10.37,2013-03-28 15:50:00,
2013-03-28 07:55:00,23.5,19.9,30.13,NNW,344,0.0,0.0,86,0.00,CLR,,0.00,WeatherDisplay:10.37,2013-03-28 15:55:00,
2013-03-28 08:00:00,23.6,20.0,30.13,NNW,344,0.0,0.0,86,0.00,CLR,,0.00,WeatherDisplay:10.37,2013-03-28 16:00:00,
2013-03-28 08:05:00,23.6,20.0,30.13,NNW,344,0.0,0.0,86,0.00,CLR,,0.00,WeatherDisplay:10.37,2013-03-28 16:05:00,
2013-03-28 08:10:00,23.6,20.3,30.13,NNW,344,0.0,0.0,87,0.00,CLR,,0.00,WeatherDisplay:10.37,2013-03-28 16:10:00,
2013-03-28 08:15:00,23.6,20.3,30.13,NNW,344,0.0,0.0,87,0.00,CLR,,0.00,WeatherDisplay:10.37,2013-03-28 16:15:00,
2013-03-28 08:20:00,23.6,20.3,30.12,NNW,344,0.0,0.0,87,0.00,CLR,,0.00,WeatherDisplay:10.37,2013-03-28 16:20:00,
2013-03-28 08:25:00,23.7,20.7,30.12,NNW,344,0.0,0.0,88,0.00,CLR,,0.00,WeatherDisplay:10.37,2013-03-28 16:25:00,
2013-03-28 08:30:00,23.7,20.7,30.12,NNW,344,0.0,0.0,88,0.00,CLR,,0.00,WeatherDisplay:10.37,2013-03-28 16:30:00,
2013-03-28 08:35:00,23.8,20.8,30.12,NNW,344,0.0,0.0,88,0.00,CLR,,0.00,WeatherDisplay:10.37,2013-03-28 16:35:00,
2013-03-28 08:40:00,23.8,20.8,30.12,NNW,344,0.0,0.0,88,0.00,CLR,,0.00,WeatherDisplay:10.37,2013-03-28 16:40:00,
2013-03-28 08:45:00,23.9,20.9,30.12,NNW,344,0.0,0.0,88,0.00,CLR,,0.00,WeatherDisplay:10.37,2013-03-28 16:45:00,
2013-03-28 08:50:00,24.0,21.0,30.12,NNW,344,0.0,0.0,88,0.00,CLR,,0.00,WeatherDisplay:10.37,2013-03-28 16:50:00,
2013-03-28 08:55:00,24.1,21.3,30.12,NNW,344,0.0,0.0,89,0.00,CLR,,0.00,WeatherDisplay:10.37,2013-03-28 16:55:00,
2013-03-28 09:00:00,24.2,21.4,30.12,NNW,344,0.0,0.0,89,0.00,CLR,,0.00,WeatherDisplay:10.37,2013-03-28 17:00:00,
2013-03-28 09:05:00,24.4,21.6,30.12,NNW,344,0.0,0.0,89,0.00,CLR,,0.00,WeatherDisplay:10.37,2013-03-28 17:05:00,
2013-03-28 09:10:00,24.6,21.8,30.12,NNW,344,0.0,0.0,89,0.00,CLR,,0.00,WeatherDisplay:10.37,2013-03-28 17:10:00,
2013-03-28 09:15:00,24.7,21.7,30.12,NNW,344,0.0,0.0,88,0.00,CLR,,0.00,WeatherDisplay:10.37,2013-03-28 17:15:00,
2013-03-28 09:20:00,24.9,21.8,30.12,NNW,344,0.0,0.0,88,0.00,CLR,,0.00,WeatherDisplay:10.37,2013-03-28 17:20:00,
2013-03-28 09:25:00,25.1,22.0,30.11,NNW,344,0.0,0.0,88,0.00,CLR,,0.00,WeatherDisplay:10.37,2013-03-28 17:25:00,
2013-03-28 09:30:00,25.2,21.9,30.11,NNW,344,0.0,0.0,87,0.00,CLR,,0.00,WeatherDisplay:10.37,2013-03-28 17:30:00,
2013-03-28 09:35:00,25.4,22.1,30.11,NNW,344,0.0,0.0,87,0.00,CLR,,0.00,WeatherDisplay:10.37,2013-03-28 17:35:00,
2013-03-28 09:40:00,25.5,22.2,30.11,NNW,344,0.0,0.0,87,0.00,CLR,,0.00,WeatherDisplay:10.37,2013-03-28 17:40:00,
2013-03-28 09:45:00,25.6,22.3,30.12,NNW,344,0.0,0.0,87,0.00,CLR,,0.00,WeatherDisplay:10.37,2013-03-28 17:45:00,
2013-03-28 09:50:00,25.7,22.4,30.11,NNW,344,0.0,0.0,87,0.00,CLR,,0.00,WeatherDisplay:10.37,2013-03-28 17:50:00,
2013-03-28 09:55:00,25.9,22.6,30.11,NNW,344,0.0,0.0,87,0.00,CLR,,0.00,WeatherDisplay:10.37,2013-03-28 17:55:00,
2013-03-28 10:00:00,26.2,22.6,30.11,NNW,344,0.0,0.0,86,0.00,CLR,,0.00,WeatherDisplay:10.37,2013-03-28 18:00:00,
2013-03-28 10:05:00,26.3,22.7,30.11,NNW,344,0.0,0.0,86,0.00,CLR,,0.00,WeatherDisplay:10.37,2013-03-28 18:05:00,
2013-03-28 10:10:00,26.5,22.9,30.11,NNW,344,0.0,0.0,86,0.00,CLR,,0.00,WeatherDisplay:10.37,2013-03-28 18:10:00,
2013-03-28 10:15:00,26.9,23.3,30.11,NNW,344,0.0,0.0,86,0.00,CLR,,0.00,WeatherDisplay:10.37,2013-03-28 18:15:00,
2013-03-28 10:20:00,27.2,23.6,30.11,NNW,344,0.0,0.0,86,0.00,CLR,,0.00,WeatherDisplay:10.37,2013-03-28 18:20:00,
2013-03-28 10:25:00,27.3,23.4,30.11,NNW,344,0.0,0.0,85,0.00,CLR,,0.00,WeatherDisplay:10.37,2013-03-28 18:25:00,
2013-03-28 10:30:00,27.2,23.3,30.11,NNW,344,0.0,0.0,85,0.00,CLR,,0.00,WeatherDisplay:10.37,2013-03-28 18:30:00,
2013-03-28 10:35:00,27.5,23.9,30.11,NNW,344,0.0,0.0,86,0.00,CLR,,0.00,WeatherDisplay:10.37,2013-03-28 18:35:00,
2013-03-28 10:40:00,28.0,24.1,30.11,NNW,344,0.0,0.0,85,0.00,CLR,,0.00,WeatherDisplay:10.37,2013-03-28 18:40:00,
2013-03-28 10:45:00,28.7,24.5,30.11,NNW,344,0.0,0.0,84,0.01,RA,,0.01,WeatherDisplay:10.37,2013-03-28 18:45:00,
2013-03-28 10:50:00,29.3,24.5,30.11,NNW,344,0.0,0.0,82,0.01,RA,,0.01,WeatherDisplay:10.37,2013-03-28 18:50:00,
2013-03-28 10:55:00,29.8,24.7,30.11,NNW,344,0.0,0.0,81,0.01,CLR,,0.01,WeatherDisplay:10.37,2013-03-28 18:55:00,
2013-03-28 11:00:00,30.2,25.1,30.10,NNW,344,0.0,0.0,81,0.02,RA,,0.02,WeatherDisplay:10.37,2013-03-28 19:00:00,
2013-03-28 11:05:00,30.7,25.3,30.10,NNW,344,0.0,0.0,80,0.02,RA,,0.02,WeatherDisplay:10.37,2013-03-28 19:05:00,
2013-03-28 11:10:00,31.2,25.4,30.10,NNW,344,0.0,0.0,79,0.03,RA,,0.03,WeatherDisplay:10.37,2013-03-28 19:10:00,
2013-03-28 11:15:00,31.5,25.4,30.10,NNW,344,0.0,0.0,78,0.03,RA,,0.03,WeatherDisplay:10.37,2013-03-28 19:15:00,
2013-03-28 11:20:00,31.6,25.5,30.10,NNW,344,0.0,0.0,78,0.03,CLR,,0.03,WeatherDisplay:10.37,2013-03-28 19:20:00,
2013-03-28 11:25:00,31.7,25.0,30.09,NNW,344,0.0,0.0,76,0.03,CLR,,0.03,WeatherDisplay:10.37,2013-03-28 19:25:00,
2013-03-28 11:30:00,31.7,24.7,30.09,NNW,344,0.0,0.0,75,0.04,RA,,0.04,WeatherDisplay:10.37,2013-03-28 19:30:00,
2013-03-28 11:35:00,31.9,24.6,30.09,NNW,344,0.0,0.0,74,0.04,RA,,0.04,WeatherDisplay:10.37,2013-03-28 19:35:00,
2013-03-28 11:40:00,31.9,24.2,30.09,NNW,344,0.0,0.0,73,0.04,CLR,,0.04,WeatherDisplay:10.37,2013-03-28 19:40:00,
2013-03-28 11:45:00,31.5,23.5,30.09,NNW,344,0.0,0.0,72,0.03,CLR,,0.04,WeatherDisplay:10.37,2013-03-28 19:45:00,
2013-03-28 11:50:00,31.5,23.8,30.09,NNW,344,0.0,0.0,73,0.03,CLR,,0.04,WeatherDisplay:10.37,2013-03-28 19:50:00,
2013-03-28 11:55:00,31.1,24.1,30.09,NNW,344,0.0,0.0,75,0.03,CLR,,0.04,WeatherDisplay:10.37,2013-03-28 19:55:00,
2013-03-28 12:00:00,30.8,24.1,30.09,NNW,344,0.0,0.0,76,0.02,CLR,,0.04,WeatherDisplay:10.37,2013-03-28 20:00:00,
2013-03-28 12:05:00,30.7,24.0,30.09,NNW,344,0.0,0.0,76,0.02,CLR,,0.04,WeatherDisplay:10.37,2013-03-28 20:05:00,
2013-03-28 12:10:00,30.8,24.1,30.08,NNW,344,0.0,0.0,76,0.01,CLR,,0.04,WeatherDisplay:10.37,2013-03-28 20:10:00,
2013-03-28 12:15:00,30.9,24.5,30.08,NNW,344,0.0,0.0,77,0.02,RA,,0.05,WeatherDisplay:10.37,2013-03-28 20:15:00,
2013-03-28 12:20:00,31.1,24.1,30.08,NNW,344,0.0,0.0,75,0.02,RA,,0.05,WeatherDisplay:10.37,2013-03-28 20:20:00,
2013-03-28 12:25:00,31.1,24.4,30.08,NNW,344,0.0,0.0,76,0.02,CLR,,0.05,WeatherDisplay:10.37,2013-03-28 20:25:00,
2013-03-28 12:30:00,31.6,25.2,30.08,NNW,344,0.0,0.0,77,0.01,CLR,,0.05,WeatherDisplay:10.37,2013-03-28 20:30:00,
2013-03-28 12:35:00,31.7,24.7,30.08,NNW,344,0.0,0.0,75,0.01,CLR,,0.05,WeatherDisplay:10.37,2013-03-28 20:35:00,
2013-03-28 12:40:00,31.5,24.5,30.08,NNW,344,0.0,0.0,75,0.01,CLR,,0.05,WeatherDisplay:10.37,2013-03-28 20:40:00,
2013-03-28 12:45:00,31.4,24.4,30.08,NNW,344,0.0,0.0,75,0.01,CLR,,0.05,WeatherDisplay:10.37,2013-03-28 20:45:00,
2013-03-28 12:50:00,31.9,25.2,30.07,NNW,344,0.0,0.0,76,0.01,CLR,,0.05,WeatherDisplay:10.37,2013-03-28 20:50:00,
2013-03-28 12:55:00,32.5,24.8,30.07,NNW,344,0.0,0.0,73,0.01,CLR,,0.05,WeatherDisplay:10.37,2013-03-28 20:55:00,
2013-03-28 13:00:00,32.3,24.3,30.07,NNW,344,0.0,0.0,72,0.01,CLR,,0.05,WeatherDisplay:10.37,2013-03-28 21:00:00,
2013-03-28 13:05:00,31.9,23.9,30.07,NNW,344,0.0,0.0,72,0.02,RA,,0.06,WeatherDisplay:10.37,2013-03-28 21:05:00,
2013-03-28 13:10:00,31.7,24.0,30.07,NNW,344,0.0,0.0,73,0.02,RA,,0.06,WeatherDisplay:10.37,2013-03-28 21:10:00,
2013-03-28 13:15:00,31.8,24.1,30.06,NNW,344,0.0,0.0,73,0.01,,,0.06,WeatherDisplay:10.37,2013-03-28 21:15:00,
2013-03-28 13:20:00,31.8,23.8,30.06,NNW,344,0.0,0.0,72,0.01,CLR,,0.06,WeatherDisplay:10.37,2013-03-28 21:20:00,
2013-03-28 13:25:00,32.0,23.7,30.06,NNW,344,0.0,0.0,71,0.01,CLR,,0.06,WeatherDisplay:10.37,2013-03-28 21:25:00,
2013-03-28 13:30:00,32.2,23.2,30.06,NNW,344,0.0,0.0,69,0.01,CLR,,0.06,WeatherDisplay:10.37,2013-03-28 21:30:00,
2013-03-28 13:35:00,32.3,23.6,30.06,NNW,344,0.0,0.0,70,0.01,CLR,,0.06,WeatherDisplay:10.37,2013-03-28 21:35:00,
2013-03-28 13:40:00,32.4,23.4,30.06,NNW,344,0.0,0.0,69,0.01,CLR,,0.06,WeatherDisplay:10.37,2013-03-28 21:40:00,
2013-03-28 13:45:00,32.3,23.9,30.06,NNW,344,0.0,0.0,71,0.01,CLR,,0.06,WeatherDisplay:10.37,2013-03-28 21:45:00,
2013-03-28 13:50:00,32.3,24.3,30.06,NNW,344,0.0,0.0,72,0.01,CLR,,0.06,WeatherDisplay:10.37,2013-03-28 21:50:00,
2013-03-28 13:55:00,32.3,23.6,30.05,NNW,344,0.0,0.0,70,0.01,CLR,,0.06,WeatherDisplay:10.37,2013-03-28 21:55:00,
2013-03-28 14:00:00,31.8,24.5,30.05,NNW,344,0.0,0.0,74,0.01,CLR,,0.06,WeatherDisplay:10.37,2013-03-28 22:00:00,
2013-03-28 14:05:00,31.5,24.2,30.05,NNW,344,0.0,0.0,74,0.00,CLR,,0.06,WeatherDisplay:10.37,2013-03-28 22:05:00,
2013-03-28 14:10:00,31.6,24.6,30.05,NNW,344,0.0,0.0,75,0.00,CLR,,0.06,WeatherDisplay:10.37,2013-03-28 22:10:00,
2013-03-28 14:15:00,31.7,23.7,30.05,NNW,344,0.0,0.0,72,0.00,CLR,,0.06,WeatherDisplay:10.37,2013-03-28 22:15:00,
2013-03-28 14:20:00,31.7,22.3,30.04,NNW,344,0.0,0.0,68,0.00,CLR,,0.06,WeatherDisplay:10.37,2013-03-28 22:20:00,
2013-03-28 14:25:00,31.8,23.8,30.04,NNW,344,0.0,0.0,72,0.00,CLR,,0.06,WeatherDisplay:10.37,2013-03-28 22:25:00,
2013-03-28 14:30:00,31.7,24.4,30.04,NNW,344,0.0,0.0,74,0.00,CLR,,0.06,WeatherDisplay:10.37,2013-03-28 22:30:00,
2013-03-28 14:35:00,31.4,23.4,30.04,NNW,344,0.0,0.0,72,0.00,CLR,,0.06,WeatherDisplay:10.37,2013-03-28 22:35:00,
2013-03-28 14:40:00,31.5,23.5,30.04,NNW,344,0.0,0.0,72,0.00,CLR,,0.06,WeatherDisplay:10.37,2013-03-28 22:40:00,
2013-03-28 14:45:00,31.6,24.3,30.03,NNW,344,0.0,0.0,74,0.00,CLR,,0.06,WeatherDisplay:10.37,2013-03-28 22:45:00,
2013-03-28 14:50:00,31.9,24.9,30.03,NNW,344,0.0,0.0,75,0.00,CLR,,0.06,WeatherDisplay:10.37,2013-03-28 22:50:00,
2013-03-28 14:55:00,32.3,23.6,30.04,NNW,344,0.0,0.0,70,0.00,CLR,,0.06,WeatherDisplay:10.37,2013-03-28 22:55:00,
2013-03-28 15:00:00,32.6,24.2,30.04,NNW,344,0.0,0.0,71,0.00,CLR,,0.06,WeatherDisplay:10.37,2013-03-28 23:00:00,
2013-03-28 15:05:00,33.1,24.7,30.04,NNW,344,0.0,0.0,71,0.00,CLR,,0.06,WeatherDisplay:10.37,2013-03-28 23:05:00,
2013-03-28 15:10:00,33.5,24.4,30.03,NNW,344,0.0,0.0,69,0.00,CLR,,0.06,WeatherDisplay:10.37,2013-03-28 23:10:00,
2013-03-28 15:15:00,33.5,24.1,30.03,NNW,344,0.0,0.0,68,0.00,CLR,,0.06,WeatherDisplay:10.37,2013-03-28 23:15:00,
2013-03-28 15:20:00,33.4,24.3,30.03,NNW,344,0.0,0.0,69,0.00,CLR,,0.06,WeatherDisplay:10.37,2013-03-28 23:20:00,
2013-03-28 15:25:00,33.3,24.9,30.03,NNW,344,0.0,0.0,71,0.00,CLR,,0.06,WeatherDisplay:10.37,2013-03-28 23:25:00,
2013-03-28 15:30:00,33.4,26.0,30.03,NNW,344,0.0,0.0,74,0.00,CLR,,0.06,WeatherDisplay:10.37,2013-03-28 23:30:00,
2013-03-28 15:35:00,33.7,25.6,30.03,NNW,344,0.0,0.0,72,0.00,CLR,,0.06,WeatherDisplay:10.37,2013-03-28 23:35:00,
2013-03-28 15:40:00,33.9,25.8,30.03,NNW,344,0.0,0.0,72,0.00,CLR,,0.06,WeatherDisplay:10.37,2013-03-28 23:40:00,
2013-03-28 15:45:00,34.2,26.1,30.03,NNW,344,0.0,0.0,72,0.00,CLR,,0.06,WeatherDisplay:10.37,2013-03-28 23:45:00,
2013-03-28 15:50:00,34.1,25.7,30.03,NNW,344,0.0,0.0,71,0.00,CLR,,0.06,WeatherDisplay:10.37,2013-03-28 23:50:00,
2013-03-28 15:55:00,34.3,26.2,30.03,NNW,344,0.0,0.0,72,0.00,CLR,,0.06,WeatherDisplay:10.37,2013-03-28 23:55:00,
2013-03-28 16:00:00,34.2,26.1,30.03,NNW,344,0.0,0.0,72,0.00,CLR,,0.06,WeatherDisplay:10.37,2013-03-29 00:00:00,
2013-03-28 16:05:00,34.0,26.3,30.02,NNW,344,0.0,0.0,73,0.00,CLR,,0.06,WeatherDisplay:10.37,2013-03-29 00:05:00,
2013-03-28 16:10:00,33.6,26.5,30.02,NNW,344,0.0,0.0,75,0.00,CLR,,0.06,WeatherDisplay:10.37,2013-03-29 00:10:00,
2013-03-28 16:15:00,33.3,25.9,30.02,NNW,344,0.0,0.0,74,0.00,CLR,,0.06,WeatherDisplay:10.37,2013-03-29 00:15:00,
2013-03-28 16:20:00,33.1,25.7,30.02,NNW,344,0.0,0.0,74,0.00,CLR,,0.06,WeatherDisplay:10.37,2013-03-29 00:20:00,
2013-03-28 16:25:00,33.1,25.7,30.01,NNW,344,0.0,0.0,74,0.00,CLR,,0.06,WeatherDisplay:10.37,2013-03-29 00:25:00,
2013-03-28 16:30:00,33.2,25.1,30.01,NNW,344,0.0,0.0,72,0.00,CLR,,0.06,WeatherDisplay:10.37,2013-03-29 00:30:00,
2013-03-28 16:35:00,33.3,24.9,30.01,NNW,344,0.0,0.0,71,0.00,CLR,,0.06,WeatherDisplay:10.37,2013-03-29 00:35:00,
2013-03-28 16:40:00,33.5,25.1,30.01,NNW,344,0.0,0.0,71,0.00,CLR,,0.06,WeatherDisplay:10.37,2013-03-29 00:40:00,
2013-03-28 16:45:00,33.5,24.8,30.00,NNW,344,0.0,0.0,70,0.00,CLR,,0.06,WeatherDisplay:10.37,2013-03-29 00:45:00,
2013-03-28 16:50:00,33.7,25.0,30.00,NNW,344,0.0,0.0,70,0.00,CLR,,0.06,WeatherDisplay:10.37,2013-03-29 00:50:00,
2013-03-28 16:55:00,33.7,24.6,30.00,NNW,344,0.0,0.0,69,0.00,CLR,,0.06,WeatherDisplay:10.37,2013-03-29 00:55:00,
2013-03-28 17:00:00,33.7,24.6,30.00,NNW,344,0.0,0.0,69,0.00,CLR,,0.06,WeatherDisplay:10.37,2013-03-29 01:00:00,
2013-03-28 17:05:00,33.9,24.8,30.00,NNW,344,0.0,0.0,69,0.00,CLR,,0.06,WeatherDisplay:10.37,2013-03-29 01:05:00,
2013-03-28 17:10:00,33.9,24.8,30.00,NNW,344,0.0,0.0,69,0.00,CLR,,0.06,WeatherDisplay:10.37,2013-03-29 01:10:00,
2013-03-28 17:15:00,33.9,25.1,30.00,NNW,344,0.0,0.0,70,0.00,CLR,,0.06,WeatherDisplay:10.37,2013-03-29 01:15:00,
2013-03-28 17:20:00,33.8,24.7,30.00,NNW,344,0.0,0.0,69,0.00,CLR,,0.06,WeatherDisplay:10.37,2013-03-29 01:20:00,
2013-03-28 17:25:00,33.5,25.1,29.99,NNW,344,0.0,0.0,71,0.00,CLR,,0.06,WeatherDisplay:10.37,2013-03-29 01:25:00,
2013-03-28 17:30:00,33.5,25.4,29.99,NNW,344,0.0,0.0,72,0.00,CLR,,0.06,WeatherDisplay:10.37,2013-03-29 01:30:00,
2013-03-28 17:35:00,33.5,25.8,29.99,NNW,344,0.0,0.0,73,0.00,CLR,,0.06,WeatherDisplay:10.37,2013-03-29 01:35:00,
2013-03-28 17:40:00,33.2,25.8,29.99,NNW,344,0.0,0.0,74,0.00,CLR,,0.06,WeatherDisplay:10.37,2013-03-29 01:40:00,
2013-03-28 17:45:00,33.0,26.3,29.99,NNW,344,0.0,0.0,76,0.00,CLR,,0.06,WeatherDisplay:10.37,2013-03-29 01:45:00,
2013-03-28 17:50:00,32.9,26.2,29.99,NNW,344,0.0,0.0,76,0.00,CLR,,0.06,WeatherDisplay:10.37,2013-03-29 01:50:00,
2013-03-28 17:55:00,32.7,26.3,29.99,NNW,344,0.0,0.0,77,0.00,CLR,,0.06,WeatherDisplay:10.37,2013-03-29 01:55:00,
2013-03-28 18:00:00,32.6,26.5,29.99,NNW,344,0.0,0.0,78,0.00,CLR,,0.06,WeatherDisplay:10.37,2013-03-29 02:00:00,
2013-03-28 18:05:00,32.4,26.9,29.99,NNW,344,0.0,0.0,80,0.00,CLR,,0.06,WeatherDisplay:10.37,2013-03-29 02:05:00,
2013-03-28 18:10:00,32.3,26.8,29.98,NNW,344,0.0,0.0,80,0.00,CLR,,0.06,WeatherDisplay:10.37,2013-03-29 02:10:00,
2013-03-28 18:15:00,32.1,26.9,29.98,NNW,344,0.0,0.0,81,0.00,CLR,,0.06,WeatherDisplay:10.37,2013-03-29 02:15:00,
2013-03-28 18:20:00,31.8,26.9,29.98,NNW,344,0.0,0.0,82,0.00,CLR,,0.06,WeatherDisplay:10.37,2013-03-29 02:20:00,
2013-03-28 18:25:00,31.6,27.0,29.98,NNW,344,0.0,0.0,83,0.00,CLR,,0.06,WeatherDisplay:10.37,2013-03-29 02:25:00,
2013-03-28 18:30:00,31.5,26.6,29.98,NNW,344,0.0,0.0,82,0.00,CLR,,0.06,WeatherDisplay:10.37,2013-03-29 02:30:00,
2013-03-28 18:35:00,31.6,27.0,29.98,NNW,344,0.0,0.0,83,0.00,CLR,,0.06,WeatherDisplay:10.37,2013-03-29 02:35:00,
2013-03-28 18:40:00,31.6,27.0,29.97,NNW,344,0.0,0.0,83,0.00,CLR,,0.06,WeatherDisplay:10.37,2013-03-29 02:40:00,
2013-03-28 18:45:00,31.6,27.3,29.97,NNW,344,0.0,0.0,84,0.00,CLR,,0.06,WeatherDisplay:10.37,2013-03-29 02:45:00,
2013-03-28 18:50:00,31.5,27.2,29.97,NNW,344,0.0,0.0,84,0.01,RA,,0.07,WeatherDisplay:10.37,2013-03-29 02:50:00,
2013-03-28 18:55:00,31.5,27.2,29.97,NNW,344,0.0,0.0,84,0.01,RA,,0.07,WeatherDisplay:10.37,2013-03-29 02:55:00,
2013-03-28 19:00:00,31.5,27.2,29.97,NNW,344,0.0,0.0,84,0.01,,,0.07,WeatherDisplay:10.37,2013-03-29 03:00:00,
2013-03-28 19:05:00,31.3,26.7,29.97,NNW,344,0.0,0.0,83,0.01,CLR,,0.07,WeatherDisplay:10.37,2013-03-29 03:05:00,
2013-03-28 19:10:00,31.3,27.3,29.97,NNW,344,0.0,0.0,85,0.01,CLR,,0.07,WeatherDisplay:10.37,2013-03-29 03:10:00,
2013-03-28 19:15:00,31.3,27.3,29.96,NNW,344,0.0,0.0,85,0.01,CLR,,0.07,WeatherDisplay:10.37,2013-03-29 03:15:00,
2013-03-28 19:20:00,31.2,27.2,29.96,NNW,344,0.0,0.0,85,0.01,CLR,,0.07,WeatherDisplay:10.37,2013-03-29 03:20:00,
2013-03-28 19:25:00,31.1,27.1,29.96,NNW,344,0.0,0.0,85,0.01,CLR,,0.07,WeatherDisplay:10.37,2013-03-29 03:25:00,
2013-03-28 19:30:00,31.1,27.4,29.96,NNW,344,0.0,0.0,86,0.01,CLR,,0.07,WeatherDisplay:10.37,2013-03-29 03:30:00,
2013-03-28 19:35:00,31.0,27.3,29.96,NNW,344,0.0,0.0,86,0.01,CLR,,0.07,WeatherDisplay:10.37,2013-03-29 03:35:00,
2013-03-28 19:40:00,30.8,27.4,29.96,NNW,344,0.0,0.0,87,0.01,CLR,,0.07,WeatherDisplay:10.37,2013-03-29 03:40:00,
2013-03-28 19:45:00,30.6,27.2,29.96,NNW,344,0.0,0.0,87,0.01,CLR,,0.07,WeatherDisplay:10.37,2013-03-29 03:45:00,
2013-03-28 19:50:00,30.6,27.5,29.96,NNW,344,0.0,0.0,88,0.00,CLR,,0.07,WeatherDisplay:10.37,2013-03-29 03:50:00,
2013-03-28 19:55:00,30.5,27.4,29.96,NNW,344,0.0,0.0,88,0.00,CLR,,0.07,WeatherDisplay:10.37,2013-03-29 03:55:00,
2013-03-28 20:00:00,30.4,27.3,29.96,NNW,344,0.0,0.0,88,0.00,CLR,,0.07,WeatherDisplay:10.37,2013-03-29 04:00:00,
2013-03-28 20:05:00,30.3,27.4,29.95,NNW,344,0.0,0.0,89,0.00,CLR,,0.07,WeatherDisplay:10.37,2013-03-29 04:05:00,
2013-03-28 20:10:00,30.2,27.3,29.95,NNW,344,0.0,0.0,89,0.00,CLR,,0.07,WeatherDisplay:10.37,2013-03-29 04:10:00,
2013-03-28 20:15:00,30.1,27.3,29.95,NNW,344,0.0,0.0,89,0.00,CLR,,0.07,WeatherDisplay:10.37,2013-03-29 04:15:00,
2013-03-28 20:20:00,30.1,27.3,29.95,NNW,344,0.0,0.0,89,0.00,CLR,,0.07,WeatherDisplay:10.37,2013-03-29 04:20:00,
2013-03-28 20:25:00,30.1,27.5,29.95,NNW,344,0.0,0.0,90,0.00,CLR,,0.07,WeatherDisplay:10.37,2013-03-29 04:25:00,
2013-03-28 20:30:00,30.1,27.5,29.95,NNW,344,0.0,0.0,90,0.00,CLR,,0.07,WeatherDisplay:10.37,2013-03-29 04:30:00,
2013-03-28 20:35:00,30.0,27.4,29.94,NNW,344,0.0,0.0,90,0.00,CLR,,0.07,WeatherDisplay:10.37,2013-03-29 04:35:00,
2013-03-28 20:40:00,30.0,27.4,29.94,NNW,344,0.0,0.0,90,0.00,CLR,,0.07,WeatherDisplay:10.37,2013-03-29 04:40:00,
2013-03-28 20:45:00,30.0,27.4,29.95,NNW,344,0.0,0.0,90,0.00,CLR,,0.07,WeatherDisplay:10.37,2013-03-29 04:45:00,
2013-03-28 20:50:00,30.0,27.4,29.95,NNW,344,0.0,0.0,90,0.00,CLR,,0.07,WeatherDisplay:10.37,2013-03-29 04:50:00,
2013-03-28 20:55:00,30.0,27.4,29.94,NNW,344,0.0,0.0,90,0.00,CLR,,0.07,WeatherDisplay:10.37,2013-03-29 04:55:00,
2013-03-28 21:00:00,30.0,27.7,29.95,NNW,344,0.0,0.0,91,0.00,CLR,,0.07,WeatherDisplay:10.37,2013-03-29 05:00:00,
2013-03-28 21:05:00,30.0,27.7,29.95,NNW,344,0.0,0.0,91,0.00,CLR,,0.07,WeatherDisplay:10.37,2013-03-29 05:05:00,
2013-03-28 21:10:00,30.0,27.4,29.95,NNW,344,0.0,0.0,90,0.00,CLR,,0.07,WeatherDisplay:10.37,2013-03-29 05:10:00,
2013-03-28 21:15:00,30.0,27.4,29.94,NNW,344,0.0,0.0,90,0.00,CLR,,0.07,WeatherDisplay:10.37,2013-03-29 05:15:00,
2013-03-28 21:20:00,30.0,27.7,29.94,NNW,344,0.0,0.0,91,0.00,CLR,,0.07,WeatherDisplay:10.37,2013-03-29 05:20:00,
2013-03-28 21:25:00,30.0,27.4,29.94,NNW,344,0.0,0.0,90,0.00,CLR,,0.07,WeatherDisplay:10.37,2013-03-29 05:25:00,
2013-03-28 21:30:00,30.1,27.5,29.94,NNW,344,0.0,0.0,90,0.00,CLR,,0.07,WeatherDisplay:10.37,2013-03-29 05:30:00,
2013-03-28 21:35:00,30.1,27.5,29.94,NNW,344,0.0,0.0,90,0.00,CLR,,0.07,WeatherDisplay:10.37,2013-03-29 05:35:00,
2013-03-28 21:40:00,30.1,27.5,29.94,NNW,344,0.0,0.0,90,0.00,CLR,,0.07,WeatherDisplay:10.37,2013-03-29 05:40:00,
2013-03-28 21:45:00,30.1,27.5,29.94,NNW,344,0.0,0.0,90,0.00,CLR,,0.07,WeatherDisplay:10.37,2013-03-29 05:45:00,
2013-03-28 21:50:00,30.2,27.3,29.94,NNW,344,0.0,0.0,89,0.00,CLR,,0.07,WeatherDisplay:10.37,2013-03-29 05:50:00,
2013-03-28 21:55:00,30.3,27.4,29.94,NNW,344,0.0,0.0,89,0.00,CLR,,0.07,WeatherDisplay:10.37,2013-03-29 05:55:00,
2013-03-28 22:00:00,30.4,27.3,29.94,NNW,344,0.0,0.0,88,0.00,CLR,,0.07,WeatherDisplay:10.37,2013-03-29 06:00:00,
2013-03-28 22:05:00,30.4,27.3,29.93,NNW,344,0.0,0.0,88,0.00,CLR,,0.07,WeatherDisplay:10.37,2013-03-29 06:05:00,
2013-03-28 22:10:00,30.5,27.1,29.93,NNW,344,0.0,0.0,87,0.00,CLR,,0.07,WeatherDisplay:10.37,2013-03-29 06:10:00,
2013-03-28 22:15:00,30.5,27.1,29.93,NNW,344,0.0,0.0,87,0.00,CLR,,0.07,WeatherDisplay:10.37,2013-03-29 06:15:00,
2013-03-28 22:20:00,30.5,27.1,29.94,NNW,344,0.0,0.0,87,0.00,CLR,,0.07,WeatherDisplay:10.37,2013-03-29 06:20:00,
2013-03-28 22:25:00,30.5,27.1,29.94,NNW,344,0.0,0.0,87,0.00,CLR,,0.07,WeatherDisplay:10.37,2013-03-29 06:25:00,
2013-03-28 22:30:00,30.5,27.1,29.93,NNW,344,0.0,0.0,87,0.00,CLR,,0.07,WeatherDisplay:10.37,2013-03-29 06:30:00,
2013-03-28 22:35:00,30.6,26.9,29.94,NNW,344,0.0,0.0,86,0.00,CLR,,0.07,WeatherDisplay:10.37,2013-03-29 06:35:00,
2013-03-28 22:40:00,30.6,27.2,29.94,NNW,344,0.0,0.0,87,0.00,CLR,,0.07,WeatherDisplay:10.37,2013-03-29 06:40:00,
2013-03-28 22:45:00,30.6,27.2,29.94,NNW,344,0.0,0.0,87,0.00,CLR,,0.07,WeatherDisplay:10.37,2013-03-29 06:45:00,
2013-03-28 22:50:00,30.5,27.4,29.94,NNW,344,0.0,0.0,88,0.00,CLR,,0.07,WeatherDisplay:10.37,2013-03-29 06:50:00,
2013-03-28 22:55:00,30.4,27.3,29.94,NNW,344,0.0,0.0,88,0.00,CLR,,0.07,WeatherDisplay:10.37,2013-03-29 06:55:00,
2013-03-28 23:00:00,30.4,27.3,29.94,NNW,344,0.0,0.0,88,0.00,CLR,,0.07,WeatherDisplay:10.37,2013-03-29 07:00:00,
2013-03-28 23:05:00,30.4,27.3,29.94,NNW,344,0.0,0.0,88,0.00,CLR,,0.07,WeatherDisplay:10.37,2013-03-29 07:05:00,
2013-03-28 23:10:00,30.4,27.5,29.94,NNW,344,0.0,0.0,89,0.00,CLR,,0.07,WeatherDisplay:10.37,2013-03-29 07:10:00,
2013-03-28 23:15:00,30.3,27.4,29.94,NNW,344,0.0,0.0,89,0.00,CLR,,0.07,WeatherDisplay:10.37,2013-03-29 07:15:00,
2013-03-28 23:20:00,30.3,27.4,29.94,NNW,344,0.0,0.0,89,0.00,CLR,,0.07,WeatherDisplay:10.37,2013-03-29 07:20:00,
2013-03-28 23:25:00,30.3,27.7,29.94,NNW,344,0.0,0.0,90,0.00,CLR,,0.07,WeatherDisplay:10.37,2013-03-29 07:25:00,
2013-03-28 23:30:00,30.2,27.6,29.94,NNW,344,0.0,0.0,90,0.00,CLR,,0.07,WeatherDisplay:10.37,2013-03-29 07:30:00,
2013-03-28 23:35:00,30.2,27.6,29.94,NNW,344,0.0,0.0,90,0.00,CLR,,0.07,WeatherDisplay:10.37,2013-03-29 07:35:00,
2013-03-28 23:40:00,30.2,27.9,29.93,NNW,344,0.0,0.0,91,0.00,CLR,,0.07,WeatherDisplay:10.37,2013-03-29 07:40:00,
2013-03-28 23:45:00,30.2,27.9,29.93,NNW,344,0.0,0.0,91,0.00,CLR,,0.07,WeatherDisplay:10.37,2013-03-29 07:45:00,
2013-03-28 23:50:00,30.2,27.9,29.93,NNW,344,0.0,0.0,91,0.00,CLR,,0.07,WeatherDisplay:10.37,2013-03-29 07:50:00,
2013-03-28 23:55:00,30.3,28.0,29.93,NNW,344,0.0,0.0,91,0.00,CLR,,0.07,WeatherDisplay:10.37,2013-03-29 07:55:00,